Weather Roundup
Issued by NWS Springfield, MO

Home | Current Version | Previous Version | Text Only | Print | Product List | Glossary On
Versions: 1 2 3 4 5 6 7 8 9 10 11 12 13 14 15 16 17 18 19 20 21 22 23 24 25 26 27 28 29 30 31 32 33 34 35 36 37 38 39 40 41 42 43 44 45 46 47 48 49 50
000
NZUS99 KSGF 061457
HRRSGF

HOURLY WEATHER
NATIONAL WEATHER SERVICE SPRINGFIELD MO
900 AM CST SAT FEB 06 2016

......SGF CWA......

CITY           SKY/WX    TMP DP  RH WIND       PRES   REMARKS
SPRINGFIELD    SUNNY     37  20  50 S6        30.31R WCI  32
JOPLIN         SUNNY     40  25  55 W6        30.33R
WEST PLAINS    SUNNY     39  18  42 SW6       30.33S WCI  35
ROLLA          SUNNY     37  19  48 SW10      30.29R WCI  30
BRANSON        SUNNY     41  16  36 CALM      30.33R

......SURROUNDING SGF CWA......

CITY           SKY/WX    TMP DP  RH WIND       PRES   REMARKS
CHANUTE        SUNNY     33  27  78 N6        30.33S WCI  28
PARSONS        SUNNY     35  27  72 NW6       30.35R WCI  30
COFFEYVILLE    MOSUNNY   38  28  67 NW7       30.36R WCI  33
EMPORIA        SUNNY     30  27  88 W5        30.31R WCI  25
HARRISON AR    SUNNY     35  21  56 SE3       30.33R

......KANSAS AND MISSOURI......

CITY           SKY/WX    TMP DP  RH WIND       PRES   REMARKS
KANSAS CTY INT MOSUNNY   32  28  85 W3        30.28F
SEDALIA        SUNNY     38  24  57 W9        30.31R WCI  31
ST JOSEPH      SUNNY     27  26  96 CALM      30.31R
ST LOUIS       MOSUNNY   35  24  64 SE5       30.32S WCI  31
WICHITA        SUNNY     32  26  78 NW7       30.34R WCI  26
TOPEKA         SUNNY     31  27  85 W3        30.32R
OLATHE         SUNNY     33  26  75 CALM      30.29F

......TENNESSEE......

CITY           SKY/WX    TMP DP  RH WIND       PRES   REMARKS
MEMPHIS        NOT AVBL
NASHVILLE      PTSUNNY   38  22  52 CALM      30.41R

......ARKANSAS.......

CITY           SKY/WX    TMP DP  RH WIND       PRES   REMARKS
FAYETTEVILLE   SUNNY     30  24  78 CALM      30.34R
FT SMITH       SUNNY     37  24  59 E3        30.36R
LITTLE ROCK    PTSUNNY   39  29  67 NE3       30.38R

......OKLAHOMA.......

CITY           SKY/WX    TMP DP  RH WIND       PRES   REMARKS
TULSA          PTSUNNY   41  31  67 NW8       30.35R
PONCA CITY     SUNNY     33  28  81 CALM      30.35S
MCALESTER      MOSUNNY   43  36  76 SW3       30.36R
OKLAHOMA CITY  MOSUNNY   35  29  78 NW14      30.37R WCI  26

......IOWA............

CITY           SKY/WX    TMP DP  RH WIND       PRES   REMARKS
DES MOINES     NOT AVBL
QUAD CITIES    SUNNY     33  23  66 CALM      30.25S

......ILLINOIS........

CITY           SKY/WX    TMP DP  RH WIND       PRES   REMARKS
QUINCY         NOT AVBL
CHICAGO        MOSUNNY   29  23  78 SW9       30.26S WCI  20



USA.gov is the U.S. government's official web portal to all federal, state and local government web resources and services.